Regional Weather Roundup
Issued by NWS

Home | Current Version | Previous Version | Graphics & Text | Print | Product List | Glossary On
Versions: 1 2 3 4 5 6 7 8 9 10 11 12 13 14 15 16 17 18 19 20 21 22 23 24 25 26 27 28 29 30 31 32 33 34 35 36 37 38 39 40 41 42 43 44 45 46 47 48 49 50
570
ASUS43 KMKX 191021
RWRWI

WISCONSIN REGIONAL WEATHER ROUNDUP
NATIONAL WEATHER SERVICE MILWAUKEE/SULLIVAN WI
500 AM CDT THU OCT 19 2017

NOTE: "FAIR" INDICATES FEW OR NO CLOUDS BELOW 12,000 FEET WITH NO
SIGNIFICANT WEATHER AND/OR OBSTRUCTIONS TO VISIBILITY.

WIZ001-002-006>008-014>016-023>028-191100-
NORTHWEST WISCONSIN

CITY           SKY/WX    TMP DP  RH WIND       PRES   REMARKS
SUPERIOR ARPT  CLOUDY    45  26  48 W10       29.95R
ASHLAND        CLOUDY    46  24  42 SW10      29.95R
HAYWARD        CLOUDY    41  26  55 SW5       29.99R
SIREN          CLOUDY    42  29  58 W6        30.01R
CUMBERLAND     CLOUDY    36  30  80 SW6       30.01S WCI  31
RICE LAKE      CLOUDY    35  31  84 CALM      30.03S
CHETEK         CLOUDY    39  30  70 SW3       30.02S
LADYSMITH      CLOUDY    42  28  58 SW3       30.02R
EAU CLAIRE     CLOUDY    41  31  67 CALM      30.03R
MENOMONIE      PTCLDY    45  32  60 W3        30.03S
NEW RICHMOND   NOT AVBL
OSCEOLA        CLOUDY    35  31  85 CALM      30.05R
$$

WIZ003>005-009-010-017-018-191100-
NORTH CENTRAL WISCONSIN

CITY           SKY/WX    TMP DP  RH WIND       PRES   REMARKS
MANITOWISH WTR CLOUDY    45  22  39 W8        29.94R
ARBOR VITAE    CLOUDY    47  23  39 W8        29.95R
WOODRUFF       CLOUDY    47  23  39 W8        29.95R
RHINELANDER    PTCLDY    38  25  59 W8        29.97R WCI  32
EAGLE RIVER    CLOUDY    46  20  35 W8        29.94R
LAND O LAKES   CLOUDY    44  21  39 W3        29.94R
PHILLIPS       CLOUDY    42  24  49 W3        29.98R
TOMAHAWK       CLOUDY    39  23  52 CALM      29.99R
MEDFORD        PTCLDY    42  27  55 W6        30.01R
MERRILL        CLOUDY    41  26  56 W3        30.00R
$$

WIZ029-030-035-036-043>047-191100-
CENTRAL WISCONSIN

CITY           SKY/WX    TMP DP  RH WIND       PRES   REMARKS
WAUSAU         CLOUDY    45  28  51 W8        29.99R
MOSINEE        CLOUDY    41  28  60 W7        30.02R
MARSHFIELD     PTCLDY    43  27  53 W5        30.02R
STEVENS POINT  CLOUDY    46  27  46 W5        30.03R
WAUPACA        MOCLDY    49  28  45 W5        30.03R
WAUTOMA        MOCLDY    47  29  49 W7        30.05R
WISC RAPIDS    CLOUDY    46  28  49 W7        30.05R
CAMP DOUGLAS   PTCLDY    41  27  57 W5        30.05R
$$

WIZ011>013-019>022-031-037>040-048>050-191100-
NORTHEAST WISCONSIN

CITY           SKY/WX    TMP DP  RH WIND       PRES   REMARKS
ANTIGO         CLOUDY    40  26  57 W8        29.98R
SHAWANO        PTCLDY    49  26  40 SW5       29.99R
OCONTO         CLOUDY    45  27  49 W5        29.98R
STURGEON BAY   CLOUDY    54  28  36 W8        29.98R
GREEN BAY      CLOUDY    49  31  49 SW6       30.00R
MANITOWOC      CLOUDY    52  30  43 W8        30.01R
APPLETON       CLOUDY    46  25  42 W9        30.01R
CLINTONVILLE   CLOUDY    48  25  40 W7        30.01R
OSHKOSH        PTCLDY    49  29  46 SW3       30.03R
$$

WIZ032>034-041-042-053>061-191100-
SOUTHWEST WISCONSIN

CITY           SKY/WX    TMP DP  RH WIND       PRES   REMARKS
LA CROSSE      CLOUDY    45  36  70 CALM      30.06R
SPARTA         PTCLDY    35  32  90 CALM      30.06S
VIROQUA        CLOUDY    49  29  45 CALM      30.06S
BOSCOBEL       PTCLDY    41  39  93 CALM      30.08S
PRAIRIE DU CHI CLOUDY    44  36  73 E3        30.08R
PLATTEVILLE    CLOUDY    48  42  80 CALM      30.09R
$$

WIZ056-057-062-063-064-067-068-191100-
SOUTH CENTRAL WISCONSIN

CITY           SKY/WX    TMP DP  RH WIND       PRES   REMARKS
REEDSBURG      CLOUDY    44  34  67 CALM      30.06R
BARABOO/DELLS  CLOUDY    44  32  62 CALM      30.06R
LONE ROCK      PTCLDY    42  39  89 CALM      30.08R
MINERAL POINT  CLOUDY    50  34  53 CALM      30.08R
MADISON        PTCLDY    45  40  82 CALM      30.06R
MIDDLETON      PTCLDY    47  35  63 CALM      30.07S
WATERTOWN      CLOUDY    44  39  83 CALM      30.06R
MONROE         CLOUDY    52  39  62 N7        30.08R
JANESVILLE     CLOUDY    46  46 100 CALM      30.07R
$$

WIZ051-052-058>065-066-070>072-191100-
SOUTHEAST WISCONSIN

CITY           SKY/WX    TMP DP  RH WIND       PRES   REMARKS
MILWAUKEE      CLOUDY    58  34  40 NW9       30.04R
WAUKESHA       CLOUDY    50  36  57 W10       30.06R
MILWAUKEE/TIMM CLOUDY    52  28  40 W7        30.05R
RACINE         PTCLDY    54  45  71 W5        30.06R
BURLINGTON     CLOUDY    52  39  60 NW6       30.06R
KENOSHA        CLOUDY    51  43  74 W5        30.06R
FOND DU LAC    CLOUDY    50  27  40 W5        30.04R
SHEBOYGAN      PTCLDY    52  31  44 W7        30.02R
WEST BEND      CLOUDY    52  27  37 W8        30.04R
JUNEAU         PTCLDY    49  29  44 CALM      30.06R
$$

LSZ147-162-191100-
LAKE SUPERIOR

STATION/POSITION TIME  TEMP    WIND        PRES    WAVE
                       AIR SEA DIR/SP/G            HT/PER
                 (UTC) (F)     (DEG/KT/KT) (MB)    (FT/S)
W MID LAKE BUOY  0950   53 52              1009.7R   7/ 6
DEVILS ISLAND    1000   53     250/ 24/ 29 1011.9R
SAXON HARBOR     0940   52     230/  8/ 16 1013.2R
$$

LMZ867-665-643>646-191100-
LAKE MICHIGAN

STATION/POSITION TIME  TEMP    WIND        PRES    WAVE
                       AIR SEA DIR/SP/G            HT/PER
                 (UTC) (F)     (DEG/KT/KT) (MB)    (FT/S)
S GREEN BAY BUOY 1000   56 58  240/ 12/ 14 1014.9
N MID LAKE BUOY  0950   58 58  280/ 17/ 19 1013.5R   6/ 7
NORTHPORT PIER   0940   56     290/  8/ 13 1013.5R
KEWAUNEE LAKESHO 0900   55     270/  8/ 11 1013.7
SHEBOYGAN LAKESH 1000   55     290/ 10/ 13 1016.4R
PORT WASHINGTON  0940   56     290/  8/ 13 1017.3R
MILWAUKEE LAKESH 1000   57     310/  7/  9   N/A
S MID LAKE BUOY  0950   60 61  290/ 16/ 19 1016.9R   3/ 6
KENOSHA   LAKESH 1000   56     270/  6/  8 1017.6
$$

TC  - TEMPERATURE IN CELSIUS
VSB - VISIBILITY IN STATUTE MILES
WCI - WIND CHILL INDEX
HX  - HEAT INDEX





USA.gov is the U.S. government's official web portal to all federal, state and local government web resources and services.